Previsão horária em Alipur

Hoje, 14 Junho, Segunda-feira

Tempo Temperatura Precipitação Vento Pressão Humidade
00:00 +35°C° 0.1 mm 3 m/s 731 mmHg 46%
01:00 +35°C° 0.1 mm 3 m/s 731 mmHg 49%
02:00 +34°C° 0.1 mm 4 m/s 731 mmHg 53%
03:00 +34°C° 0 mm 3 m/s 730 mmHg 54%
04:00 +34°C° 0 mm 2 m/s 730 mmHg 56%
05:00 +32°C° 0 mm 2 m/s 730 mmHg 61%
06:00 +34°C° 0 mm 2 m/s 730 mmHg 57%
07:00 +35°C° 0 mm 2 m/s 731 mmHg 53%
08:00 +36°C° 0 mm 2 m/s 731 mmHg 49%
09:00 +36°C° 0 mm 1 m/s 731 mmHg 44%
10:00 +39°C° 0 mm 1 m/s 731 mmHg 39%
11:00 +40°C° 0 mm 1 m/s 731 mmHg 37%
12:00 +41°C° 0 mm 1 m/s 730 mmHg 34%
13:00 +42°C° 0 mm 2 m/s 729 mmHg 31%
14:00 +42°C° 0 mm 2 m/s 728 mmHg 27%
15:00 +44°C° 0 mm 3 m/s 728 mmHg 26%
16:00 +44°C° 0 mm 3 m/s 727 mmHg 24%
17:00 +44°C° 0 mm 4 m/s 726 mmHg 22%
18:00 +43°C° 0 mm 3 m/s 727 mmHg 22%
19:00 +42°C° 0 mm 2 m/s 727 mmHg 23%
20:00 +41°C° 0 mm 2 m/s 727 mmHg 24%
21:00 +40°C° 0 mm 2 m/s 727 mmHg 26%
22:00 +40°C° 0 mm 2 m/s 727 mmHg 27%
23:00 +39°C° 0 mm 3 m/s 727 mmHg 29%

Amanhã, 15 Junho, Terça-feira

Tempo Temperatura Precipitação Vento Pressão Humidade
00:00 +38°C° 0 mm 3 m/s 727 mmHg 32%
01:00 +38°C° 0 mm 3 m/s 727 mmHg 36%
02:00 +37°C° 0 mm 4 m/s 727 mmHg 39%
03:00 +37°C° 0 mm 3 m/s 727 mmHg 41%
04:00 +36°C° 0 mm 3 m/s 727 mmHg 42%
05:00 +36°C° 0 mm 3 m/s 727 mmHg 44%
06:00 +37°C° 0 mm 3 m/s 727 mmHg 42%
07:00 +38°C° 0 mm 3 m/s 727 mmHg 39%
08:00 +39°C° 0 mm 3 m/s 727 mmHg 37%
09:00 +40°C° 0 mm 3 m/s 727 mmHg 33%
10:00 +43°C° 0 mm 3 m/s 727 mmHg 30%
11:00 +44°C° 0 mm 3 m/s 727 mmHg 27%
12:00 +43°C° 0.2 mm 3 m/s 726 mmHg 29%
13:00 +42°C° 0.2 mm 3 m/s 726 mmHg 31%
14:00 +39°C° 0.2 mm 3 m/s 726 mmHg 33%
15:00 +38°C° 0.9 mm 4 m/s 726 mmHg 40%
16:00 +36°C° 0.9 mm 5 m/s 726 mmHg 48%
17:00 +34°C° 0.9 mm 7 m/s 726 mmHg 55%
18:00 +34°C° 0 mm 5 m/s 727 mmHg 52%
19:00 +35°C° 0 mm 4 m/s 727 mmHg 48%
20:00 +35°C° 0 mm 3 m/s 728 mmHg 45%
21:00 +35°C° 0 mm 3 m/s 727 mmHg 45%
22:00 +35°C° 0 mm 4 m/s 727 mmHg 44%
23:00 +35°C° 0 mm 4 m/s 727 mmHg 44%

Depois de amanhã, 16 Junho, Quarta-feira

Tempo Temperatura Precipitação Vento Pressão Humidade
00:00 +35°C° 0.3 mm 3 m/s 728 mmHg 46%
01:00 +34°C° 0.3 mm 2 m/s 728 mmHg 47%
02:00 +33°C° 0.3 mm 1 m/s 728 mmHg 49%
03:00 +33°C° 0 mm 1 m/s 728 mmHg 51%
04:00 +34°C° 0 mm 2 m/s 728 mmHg 52%
05:00 +33°C° 0 mm 3 m/s 728 mmHg 53%
06:00 +34°C° 0 mm 3 m/s 729 mmHg 52%
07:00 +35°C° 0 mm 2 m/s 729 mmHg 50%
08:00 +36°C° 0 mm 2 m/s 730 mmHg 49%
09:00 +37°C° 0 mm 2 m/s 730 mmHg 45%
10:00 +37°C° 0 mm 1 m/s 730 mmHg 42%
11:00 +39°C° 0 mm 1 m/s 730 mmHg 38%
12:00 +39°C° 0 mm 1 m/s 730 mmHg 35%
13:00 +40°C° 0 mm 1 m/s 729 mmHg 33%
14:00 +41°C° 0 mm 1 m/s 729 mmHg 30%
15:00 +40°C° 0.3 mm 2 m/s 728 mmHg 32%
16:00 +39°C° 0.3 mm 2 m/s 728 mmHg 33%
17:00 +39°C° 0.3 mm 3 m/s 728 mmHg 34%
18:00 +38°C° 0 mm 2 m/s 728 mmHg 34%
19:00 +38°C° 0 mm 2 m/s 729 mmHg 34%
20:00 +38°C° 0 mm 2 m/s 729 mmHg 33%
21:00 +38°C° 0 mm 2 m/s 729 mmHg 35%
22:00 +37°C° 0 mm 2 m/s 730 mmHg 37%
23:00 +37°C° 0 mm 2 m/s 730 mmHg 39%

17 Junho, Quinta-feira

Tempo Temperatura Precipitação Vento Pressão Humidade
00:00 +36°C° 0 mm 2 m/s 730 mmHg 41%
01:00 +36°C° 0 mm 3 m/s 730 mmHg 43%
02:00 +35°C° 0 mm 4 m/s 730 mmHg 45%
03:00 +35°C° 0 mm 3 m/s 730 mmHg 46%
04:00 +34°C° 0 mm 3 m/s 730 mmHg 48%
05:00 +34°C° 0 mm 2 m/s 730 mmHg 49%
06:00 +35°C° 0 mm 2 m/s 730 mmHg 45%
07:00 +36°C° 0 mm 2 m/s 730 mmHg 42%
08:00 +37°C° 0 mm 2 m/s 731 mmHg 39%
09:00 +39°C° 0 mm 2 m/s 731 mmHg 35%
10:00 +40°C° 0 mm 1 m/s 731 mmHg 31%
11:00 +42°C° 0 mm 1 m/s 731 mmHg 27%
12:00 +43°C° 0 mm 2 m/s 730 mmHg 24%
13:00 +43°C° 0 mm 2 m/s 730 mmHg 21%
14:00 +45°C° 0 mm 2 m/s 729 mmHg 19%
15:00 +45°C° 0 mm 2 m/s 729 mmHg 19%
16:00 +44°C° 0 mm 3 m/s 729 mmHg 20%
17:00 +43°C° 0 mm 3 m/s 728 mmHg 21%
18:00 +43°C° 0 mm 3 m/s 729 mmHg 23%
19:00 +42°C° 0 mm 3 m/s 729 mmHg 26%
20:00 +40°C° 0 mm 3 m/s 730 mmHg 28%
21:00 +40°C° 0 mm 4 m/s 730 mmHg 33%
22:00 +39°C° 0 mm 5 m/s 731 mmHg 38%
23:00 +38°C° 0 mm 6 m/s 731 mmHg 43%

18 Junho, Sexta-feira

Tempo Temperatura Precipitação Vento Pressão Humidade
00:00 +37°C° 0 mm 5 m/s 731 mmHg 45%
01:00 +36°C° 0 mm 5 m/s 730 mmHg 47%
02:00 +36°C° 0 mm 5 m/s 730 mmHg 50%
03:00 +35°C° 0.1 mm 4 m/s 730 mmHg 51%
04:00 +35°C° 0.1 mm 4 m/s 730 mmHg 53%
05:00 +34°C° 0.1 mm 4 m/s 731 mmHg 54%
06:00 +35°C° 0 mm 4 m/s 731 mmHg 51%
07:00 +36°C° 0 mm 3 m/s 731 mmHg 48%
08:00 +37°C° 0 mm 3 m/s 732 mmHg 45%
09:00 +38°C° 0 mm 3 m/s 732 mmHg 41%
10:00 +39°C° 0 mm 3 m/s 732 mmHg 37%
11:00 +40°C° 0 mm 3 m/s 732 mmHg 33%
12:00 +42°C° 0 mm 3 m/s 731 mmHg 30%
13:00 +43°C° 0 mm 3 m/s 731 mmHg 28%
14:00 +44°C° 0 mm 4 m/s 730 mmHg 25%
15:00 +41°C° 0.7 mm 4 m/s 730 mmHg 36%
16:00 +37°C° 0.7 mm 4 m/s 731 mmHg 46%
17:00 +34°C° 0.7 mm 4 m/s 731 mmHg 56%
18:00 +33°C° 2.1 mm 5 m/s 732 mmHg 59%
19:00 +33°C° 2.1 mm 5 m/s 732 mmHg 62%
20:00 +32°C° 2.1 mm 6 m/s 733 mmHg 65%
21:00 +32°C° 0 mm 5 m/s 733 mmHg 64%
22:00 +32°C° 0 mm 5 m/s 733 mmHg 62%
23:00 +32°C° 0 mm 4 m/s 733 mmHg 61%

19 Junho, Sábado

Tempo Temperatura Precipitação Vento Pressão Humidade
00:00 +31°C° 0 mm 3 m/s 733 mmHg 61%
01:00 +31°C° 0 mm 3 m/s 733 mmHg 61%
02:00 +31°C° 0 mm 3 m/s 733 mmHg 61%
03:00 +31°C° 0 mm 3 m/s 733 mmHg 62%
04:00 +31°C° 0 mm 2 m/s 733 mmHg 63%
05:00 +30°C° 0 mm 2 m/s 733 mmHg 63%
06:00 +31°C° 0 mm 2 m/s 733 mmHg 60%
07:00 +32°C° 0 mm 2 m/s 733 mmHg 57%
08:00 +34°C° 0 mm 2 m/s 734 mmHg 54%
09:00 +36°C° 0 mm 2 m/s 734 mmHg 50%
10:00 +37°C° 0 mm 2 m/s 733 mmHg 45%
11:00 +38°C° 0 mm 2 m/s 733 mmHg 40%
12:00 +40°C° 0 mm 2 m/s 733 mmHg 36%
13:00 +41°C° 0 mm 2 m/s 732 mmHg 31%
14:00 +42°C° 0 mm 2 m/s 731 mmHg 27%
15:00 +42°C° 0.1 mm 2 m/s 731 mmHg 28%
16:00 +42°C° 0.1 mm 3 m/s 731 mmHg 29%
17:00 +40°C° 0.1 mm 3 m/s 730 mmHg 30%
18:00 +40°C° 0.2 mm 4 m/s 731 mmHg 32%
19:00 +40°C° 0.2 mm 4 m/s 731 mmHg 34%
20:00 +38°C° 0.2 mm 4 m/s 731 mmHg 36%
21:00 +37°C° 0 mm 4 m/s 731 mmHg 38%
22:00 +37°C° 0 mm 4 m/s 732 mmHg 40%
23:00 +36°C° 0 mm 4 m/s 732 mmHg 43%
Mostrar mais